Change the Weather History Date:

Thursday, November 17, 2011

  Actual Average Record
Temperature  
Mean Temperature 31 °F 38 °F  
Max Temperature 36 °F 46 °F 70 °F (1953)
Min Temperature 25 °F 31 °F 9 °F (1959)
Degree Days  
Heating Degree Days 34 27  
Month to date heating degree days 322 401  
Since 1 July heating degree days 898 1097  
Cooling Degree Days 0 0  
Month to date cooling degree days 0 0  
Year to date cooling degree days 819 531  
Moisture  
Dew Point 20 °F    
Average Humidity 66    
Maximum Humidity 81    
Minimum Humidity 51    
Precipitation  
Precipitation T in 0.09 in 1.93 in (1952)
Month to date precipitation 0.63 1.55  
Year to date precipitation 36.69 28.33  
Snow  
Snow T in 0.10 in 2.90 in (1989)
Month to date snowfall T 0.7  
Since 1 July snowfall T 1.1  
Since 1 September snowfall T 1.1  
Snow Depth 0.00 in    
Sea Level Pressure  
Sea Level Pressure 30.09 in    
Wind  
Wind Speed 11 mph (WSW)    
Max Wind Speed 24 mph    
Max Gust Speed 31 mph    
Visibility 9 miles    
Events Snow    
T = Trace of Precipitation, MM = Missing Value Source: NWS Daily Summary

Daily Weather History Graph

Daily Weather History Graph

Search for Another Location

Airport or City:

Trip Planner

Search our weather history database for the weather conditions in past years. The results will help you decide how hot, cold, wet, or windy it might be!

Date:

Astronomy

Nov. 17, 2011 Rise Set
Actual Time 7:29 AM EST 5:09 PM EST
Civil Twilight 6:58 AM EST 5:40 PM EST
Nautical Twilight 6:24 AM EST 6:15 PM EST
Astronomical Twilight 5:50 AM EST 6:48 PM EST
Moon 11:32 PM EST (11/17) 12:35 PM EST (11/17)
Length of Visible Light 10h 41m
Length of Day
9h 40m
Waning Gibbous, 60% of the Moon is Illuminated
Nov 17
Waning Gibbous
Nov 18
Last Quarter
Nov 25
New
Dec 2
First Quarter
Dec 10
Full

Hourly Weather History & Observations

Time (EST) Temp. Windchill Dew Point Humidity Pressure Visibility Wind Dir Wind Speed Gust Speed Precip Events Conditions
12:53 AM 28.0 °F 21.7 °F 19.9 °F 72% 30.06 in 10.0 mi WSW 5.8 mph - N/A   Clear
1:53 AM 27.0 °F 19.5 °F 19.9 °F 75% 30.06 in 10.0 mi WSW 6.9 mph - N/A   Clear
2:53 AM 27.0 °F 20.5 °F 19.0 °F 72% 30.05 in 10.0 mi SW 5.8 mph - N/A   Clear
3:53 AM 28.4 °F 20.4 °F 19.4 °F 69% 30.01 in 10.0 mi SSW 8.1 mph - N/A   Clear
4:53 AM 27.0 °F 19.5 °F 19.0 °F 72% 30.04 in 10.0 mi SW 6.9 mph - N/A   Clear
5:53 AM 27.0 °F 19.5 °F 19.0 °F 72% 30.03 in 10.0 mi SSW 6.9 mph - N/A   Clear
6:53 AM 28.9 °F 22.8 °F 19.9 °F 69% 30.03 in 10.0 mi SSW 5.8 mph - N/A   Overcast
7:53 AM 30.0 °F 22.4 °F 19.9 °F 66% 30.03 in 10.0 mi SW 8.1 mph - N/A   Overcast
8:53 AM 30.9 °F 24.3 °F 21.0 °F 67% 30.04 in 10.0 mi West 6.9 mph - N/A   Overcast
9:53 AM 34.0 °F 25.5 °F 21.0 °F 59% 30.04 in 10.0 mi West 11.5 mph - N/A   Mostly Cloudy
10:53 AM 35.1 °F 25.9 °F 23.0 °F 61% 30.05 in 10.0 mi WNW 13.8 mph - 0.00 in   Overcast
11:53 AM 34.0 °F 22.1 °F 19.0 °F 54% 30.04 in 10.0 mi WNW 21.9 mph 26.5 mph N/A   Overcast
12:53 PM 34.0 °F 23.0 °F 17.1 °F 50% 30.03 in 10.0 mi West 18.4 mph 31.1 mph N/A   Overcast
1:53 PM 33.1 °F 22.6 °F 17.1 °F 52% 30.05 in 10.0 mi West 16.1 mph 26.5 mph N/A   Overcast
2:53 PM 33.1 °F 22.2 °F 19.0 °F 56% 30.06 in 10.0 mi WNW 17.3 mph 23.0 mph 0.00 in   Overcast
3:53 PM 32.0 °F 21.6 °F 19.0 °F 59% 30.09 in 9.0 mi West 15.0 mph - 0.00 in   Overcast
4:08 PM 30.2 °F 17.4 °F 21.2 °F 69% 30.07 in 1.8 mi West 20.7 mph 25.3 mph 0.00 in Snow Light Snow
4:25 PM 30.2 °F 19.8 °F 21.2 °F 69% 30.07 in 4.0 mi West 13.8 mph 21.9 mph 0.00 in Snow Light Snow
4:33 PM 30.2 °F 19.3 °F 19.4 °F 64% 30.08 in 10.0 mi West 15.0 mph 20.7 mph 0.00 in   Overcast
4:53 PM 30.0 °F 19.5 °F 19.9 °F 66% 30.12 in 10.0 mi West 13.8 mph - 0.00 in   Overcast
5:53 PM 30.0 °F 21.1 °F 19.9 °F 66% 30.14 in 10.0 mi West 10.4 mph - N/A   Overcast
6:53 PM 30.0 °F 18.3 °F 18.0 °F 61% 30.16 in 10.0 mi West 17.3 mph 24.2 mph N/A   Scattered Clouds
7:53 PM 28.9 °F 19.2 °F 19.9 °F 69% 30.18 in 10.0 mi WSW 11.5 mph - N/A   Clear
8:53 PM 28.0 °F 18.6 °F 19.9 °F 72% 30.20 in 10.0 mi WSW 10.4 mph - N/A   Clear
9:53 PM 27.0 °F 18.0 °F 21.0 °F 78% 30.21 in 10.0 mi SW 9.2 mph - N/A   Clear
10:53 PM 26.1 °F 18.4 °F 21.0 °F 81% 30.22 in 10.0 mi SW 6.9 mph - N/A   Clear
11:53 PM 25.0 °F 16.3 °F 19.9 °F 81% 30.23 in 10.0 mi SW 8.1 mph - N/A   Clear